Social login voor leden:
METAR EBOS 180850Z 28035G49KT 9999 FEW019 SCT038 08/02 Q0997 NOSIG
TAF EBOS 180500Z 1806/1912 25028G40KT 9999 SCT020 SCT040 PROB40 TEMPO 1806/1809 26035G50KT BECMG 1810/1812 28023G35KT PROB40 TEMPO 1818/1824 4000 SHRA SCT008 BKN014CB BECMG 1900/1902 27015G25KT

NZVC is de eerste Belgische vliegclub met een erkenning als 'Approved Training Organisation (ATO)'

Sinds 3 maart 2015 is de Noordzee Vliegclub Oostende erkend door de Europese Unie en de Belgian Civil Aviation Authority als Approved Training Organisation (ATO). Hierbij zijn we de eerste vliegclub in België die voldoet aan de nieuwste en strengste Europese normen inzake organisatie, kwaliteit en veiligheid bij de opleiding tot Privaat Piloot (PPL).

 

Opleiding Piloot
Meevliegen
Visit Us
Agenda
Opleiding Piloot
Doopvluchten
Visit Us
Volgende activiteit
Noordzee Vliegclub - Nieuwpoortsesteenweg 947 8400 Oostende - Tel 059 30 04 79 - Dit e-mailadres wordt beveiligd tegen spambots. JavaScript dient ingeschakeld te zijn om het te bekijken.

 - Copyright 2017 ©